Regional Weather Roundup
Issued by NWS

Home | Current Version | Previous Version | Graphics & Text | Print | Product List | Glossary Off
Versions: 1 2 3 4 5 6 7 8 9 10 11 12 13 14 15 16 17 18 19 20 21 22 23 24 25 26 27 28 29 30 31 32 33 34 35 36 37 38 39 40 41 42 43 44 45 46 47 48 49 50

000
ASUS43 KTOP 010708
RWRKS

WEATHER ROUNDUP FOR KANSAS
NATIONAL WEATHER SERVICE GOODLAND KS
200 AM CDT FRI AUG 01 2014

NOTE:  "FAIR" INDICATES FEW OR NO CLOUDS BELOW 12,000 FEET WITH NO
SIGNIFICANT WEATHER AND/OR OBSTRUCTIONS TO VISIBILITY.

KSZ001>006-013>018-027>032-041>047-010800-
NORTHWEST KANSAS

CITY           SKY/WX    TMP DP  RH WIND       PRES   REMARKS
GOODLAND       PTCLDY    63  52  67 W10       30.17S
HAYS           CLEAR     64  55  72 SW8       30.08S
HILL CITY      CLEAR     66  53  63 W3        30.07F
RUSSELL        CLEAR     66  58  75 S12       30.05S
$$

KSZ061>065-074>080-084>089-010800-
SOUTHWEST KANSAS

CITY           SKY/WX    TMP DP  RH WIND       PRES   REMARKS
DODGE CITY     PTCLDY    65  57  75 S8        30.14S
ELKHART          N/A     67  51  56 SW5         N/A
GARDEN CITY    PTCLDY    62  56  80 W7        30.14F
GREAT BEND       N/A     64  57  77 SW8       30.08S
LIBERAL        MOCLDY    64  55  72 SW3       30.17F
PRATT          CLEAR     63  57  82 SW7       30.12S
$$

KSZ066>073-081>083-090>101-010800-
SOUTHEAST KANSAS

CITY           SKY/WX    TMP DP  RH WIND       PRES   REMARKS
CHANUTE        CLEAR     66  64  93 SW6       30.07F
COFFEYVILLE    CLEAR     66  65  96 CALM      30.06F
HUTCHINSON     CLEAR     58  54  86 S3        30.08S
MEDICINE LODGE   N/A     63  61  93 N3        30.10S
NEWTON         CLEAR     66  57  72 SW7       30.11S
PARSONS        FOG       63  62  97 CALM      30.08S VSB 1/2
WICHITA INTL   PTCLDY    65  61  87 SW7       30.08S
WICHITA JABRA  CLEAR     66  62  87 S8        30.08R
WICHITA MCCONL CLEAR     65  65 100 S8        30.09R
WINFIELD       CLEAR     65  65 100 S3        30.10S
$$

KSZ007>012-019>026-033>040-048>060-102>105-010800-
NORTHEAST KANSAS

CITY           SKY/WX    TMP DP  RH WIND       PRES   REMARKS
CONCORDIA      CLEAR     68  55  63 S12       30.03F
EMPORIA        CLEAR     62  58  86 S7        30.06S
LAWRENCE       PTCLDY    64  59  83 E5        30.05F
MANHATTAN      CLEAR     69  57  65 SW7       30.04F
MARYSVILLE     PTCLDY    64  55  72 NE6       30.05R
OLATHE IND     CLEAR     64  59  83 S6        30.07S
OLATHE EXE     CLEAR     65  60  84 S5        30.05F
SALINA         CLEAR     63  55  75 S5        30.06S
TOPEKA BILLARD PTCLDY    66  59  78 CALM      30.05R
TOPEKA FORBES  PTCLDY    66  58  75 CALM      30.05S
$$


USA.gov is the U.S. government's official web portal to all federal, state and local government web resources and services.